Station 41013 (LLNR 815) - Frying Pan Shoals, NC Image indicating link to RSS feed of recent meteorological observations for station 41013


Conditions at 41013 as of
(6:10 pm EDT)
2210 GMT on 04/14/2024:
     

Click on the graph icon in the table below to see a time series plot of the last five days of that observation.

5-day plot - Wind Direction Wind Direction (WDIR): SW ( 220 deg true )
5-day plot - Wind Speed Wind Speed (WSPD): 9.7 kts
5-day plot - Wind Gust Wind Gust (GST): 11.7 kts
5-day plot - Wave Height Wave Height (WVHT): 2.0 ft
5-day plot - Average Wave Period Average Period (APD): 4.5 sec
5-day plot - Mean Wave Direction Mean Wave Direction (MWD):ESE ( 118 deg true )
5-day plot - Atmospheric Pressure Atmospheric Pressure (PRES):30.07 in
5-day plot - Air Temperature Air Temperature (ATMP): 67.3 °F
5-day plot - Water Temperature Water Temperature (WTMP): 66.7 °F
5-day plot - Dew Point Dew Point (DEWP): 62.1 °F
5-day plot - Wind Speed at 10 Meters Wind Speed at 10 meters (WSPD10M): 9.7 kts
5-day plot - Wind Speed at 20 Meters Wind Speed at 20 meters (WSPD20M): 11.7 kts
5-day plot -  Wind Speed, Wind Gust and Atmospheric Pressure Combined plot of Wind Speed, Gust, and Air Pressure
Supplemental Measurements
Highest 1-minute Wind Speed
Time (EDT)5-day plot - 1-Minute Wind Speed WSPD 5-day plot - 1-Minute Wind Direction WDIR
6:07 pm 9.7 kts-
Previous observations
TIME
(EDT)
5-day plot - Wind Direction
WDIR
 
5-day plot - Wind Speed
WSPD
kts
5-day plot - Wind Gust
GST
kts
5-day plot - Wave Height
WVHT
ft
5-day plot - Dominant Wave Period
DPD
sec
5-day plot - Average Wave Period
APD
sec
5-day plot - Mean Wave Direction
MWD
 
5-day plot - Atmospheric Pressure
PRES
in
5-day plot - Pressure Tendency
PTDY
in
5-day plot - Air Temperature
ATMP
°F
5-day plot - Water Temperature
WTMP
°F
5-day plot - Dew Point
DEWP
°F
5-day plot - Salinity
SAL
psu
5-day plot - Visibility
VIS
nmi
5-day plot - Tide (above MLLW)
TIDE
ft
2024-04-14 06:00 pm SW 9.7 11.7----30.07-0.04 67.3 66.9 61.5---
2024-04-14 05:50 pm SW 7.8 11.7 2.0 84.5 SE30.08- 67.5 66.9 61.3---
2024-04-14 05:40 pm SW 9.7 11.7----30.08- 67.5 67.1 61.0---
2024-04-14 05:30 pm SW 7.8 9.7----30.08- 67.6 67.1 61.0---
2024-04-14 05:20 pm SW 9.7 11.7 2.0 84.8ESE30.08- 67.6 67.3 60.4---
2024-04-14 05:10 pm SW 9.7 11.7 2.0-4.8ESE30.08- 67.5 67.3 60.8---
2024-04-14 05:00 pm SW 7.8 9.7----30.08-0.06 67.6 67.1 62.2---
2024-04-14 04:50 pm SW 7.8 9.7 2.0 85.1 SE30.08- 67.6 66.9 62.1---
2024-04-14 04:40 pm SW 7.8 9.7 2.0-5.1 SE30.08- 67.6 67.1 61.9---
2024-04-14 04:30 pm SW 7.8 9.7----30.08- 67.6 66.9 61.7---
2024-04-14 04:20 pm SW 7.8 9.7 2.0 85.1ESE30.09- 67.8 66.6 61.7---
2024-04-14 04:10 pmSSW 7.8 9.7 2.0-5.1ESE30.09- 67.8 66.4 61.5---
2024-04-14 04:00 pmSSW 7.8 9.7----30.09-0.07 68.0 65.7 61.3---
2024-04-14 03:50 pmSSW 7.8 9.7 1.6 85.0 SE30.09- 67.8 65.7 60.4---
2024-04-14 03:40 pmSSW 7.8 9.7----30.09- 68.0 65.7 60.4---
2024-04-14 03:30 pmSSW 7.8 9.7----30.10- 68.0 65.7 59.9---
2024-04-14 03:20 pm S 7.8 7.8 2.0 85.2 SE30.11- 68.0 65.7 59.4---
2024-04-14 03:10 pm S 5.8 7.8 2.0-5.2 SE30.11- 67.8 65.7 58.8---
2024-04-14 03:00 pm S 7.8 9.7----30.11-0.06 67.8 65.8 58.1---
2024-04-14 02:50 pm S 7.8 7.8 1.6 125.0 E30.11- 67.8 65.7 57.4---
2024-04-14 02:40 pm S 5.8 7.8----30.12- 67.8 65.7 57.7---
2024-04-14 02:30 pm S 5.8 7.8----30.13- 67.6 65.7 57.2---
2024-04-14 02:20 pm S 5.8 7.8 2.0 114.9 E30.13- 67.8 65.5 56.1---
2024-04-14 02:10 pm S 5.8 7.8 2.0-4.9 E30.13- 67.8 65.5 55.0---
2024-04-14 02:00 pm S 3.9 5.8----30.14-0.05 67.8 65.5 55.4---
2024-04-14 01:50 pm S 3.9 3.9 2.0 125.0 E30.14- 67.8 65.5 55.4---
2024-04-14 01:40 pm S 1.9 3.9----30.14- 67.8 65.5 55.8---
2024-04-14 01:30 pm S 1.9 1.9----30.15- 67.8 65.5 56.1---
2024-04-14 01:20 pm- 0.0 0.0 2.0 84.8 SE30.15- 67.6 65.5 56.1---
2024-04-14 01:10 pm- 0.0 1.9 2.0-4.8 SE30.15- 67.5 65.3 56.8---
2024-04-14 01:00 pm- 0.0 1.9----30.16-0.02 67.5 65.3 57.0---
2024-04-14 12:50 pm- 0.0 1.9 1.6 124.6ENE30.16- 67.3 65.3 57.0---
2024-04-14 12:40 pm- 0.0 0.0----30.16- 66.7 65.3 56.8---
2024-04-14 12:30 pm- 0.0 1.9----30.16- 66.7 65.3 58.3---
2024-04-14 12:20 pm- 0.0 1.9 2.0 114.6 E30.17- 66.4 65.3 58.5---
2024-04-14 12:10 pm- 0.0 1.9 2.0-4.6 E30.17- 66.0 65.3 58.5---
2024-04-14 12:00 pmSSW 1.9 1.9----30.17+0.00 65.8 65.3 58.5---
2024-04-14 11:50 am- 0.0 1.9 2.0 124.5 E30.18- 65.5 65.1 57.9---
2024-04-14 11:40 amWSW 1.9 1.9----30.18- 65.5 65.1 58.6---
2024-04-14 11:30 am W 1.9 1.9----30.19- 64.9 65.1 58.5---
2024-04-14 11:20 amWNW 1.9 1.9 2.0 114.5 E30.18- 64.8 65.1 58.8---
2024-04-14 11:10 amWNW 1.9 3.9 2.0-4.5 E30.19- 64.8 65.1 59.2---
2024-04-14 11:00 am W 1.9 3.9----30.19+0.02 64.8 65.1 59.7---
2024-04-14 10:50 amWNW 3.9 3.9 2.0 124.5 E30.19- 64.9 65.1 60.3---
2024-04-14 10:40 amWNW 3.9 3.9----30.19- 64.8 65.1 60.1---
2024-04-14 10:30 am W 1.9 3.9----30.18- 64.9 64.9 60.6---
2024-04-14 10:20 am W 1.9 3.9 2.0 54.4SSW30.18- 64.9 64.9 61.0---
2024-04-14 10:10 am W 1.9 1.9 2.0-4.4SSW30.18- 65.1 64.9 61.5---
2024-04-14 10:00 am- 0.0 1.9----30.18+0.03 64.9 64.9 61.7---
2024-04-14 09:50 amNNW 1.9 1.9 2.0 54.5SSW30.18- 64.9 64.9 61.7---
2024-04-14 09:40 am NW 1.9 1.9----30.17- 65.1 64.9 61.7---
2024-04-14 09:30 amWNW 1.9 1.9----30.17- 65.1 64.9 61.5---
2024-04-14 09:20 am W 1.9 1.9 2.0 54.4SSW30.17- 65.1 64.9 61.7---
2024-04-14 09:10 amWNW 1.9 3.9 2.0-4.4SSW30.18- 64.9 64.8 61.5---
2024-04-14 09:00 amWNW 1.9 3.9----30.17+0.04 65.1 64.8 61.5---
2024-04-14 08:50 am W 3.9 3.9 2.0 54.5SSW30.17- 65.1 64.8 61.5---
2024-04-14 08:40 amWSW 1.9 3.9----30.17- 65.3 64.8 61.7---
2024-04-14 08:30 am W 1.9 3.9----30.17- 65.1 64.8 61.7---
2024-04-14 08:20 amWSW 1.9 3.9 2.0 84.5 SE30.17- 65.1 64.8 61.9---
2024-04-14 08:10 am W 1.9 3.9 2.0-4.5 SE30.16- 64.9 64.8 61.7---
2024-04-14 08:00 am W 1.9 3.9----30.17+0.05 64.9 64.8 61.9---
2024-04-14 07:50 am W 1.9 3.9 2.3 124.7ESE30.16- 65.1 64.8 62.1---
2024-04-14 07:40 amWSW 1.9 3.9----30.16- 65.1 64.8 62.2---
2024-04-14 07:30 amWSW 1.9 3.9----30.16- 64.8 64.8 61.9---
2024-04-14 07:20 amWSW 3.9 3.9 2.0 54.6 SW30.15- 64.8 64.8 61.9---
2024-04-14 07:10 amWSW 3.9 5.8 2.0-4.6 SW30.15- 64.6 64.8 61.9---
2024-04-14 07:00 amWSW 3.9 5.8----30.15+0.04 64.6 64.8 62.1---
2024-04-14 06:50 am SW 3.9 5.8 2.0 54.7SSW30.14- 64.6 64.8 62.1---
2024-04-14 06:40 amWSW 3.9 5.8----30.14- 64.8 64.8 61.9---
2024-04-14 06:30 amWSW 3.9 3.9----30.14- 64.8 64.8 61.9---
2024-04-14 06:20 amWSW 3.9 3.9 2.0 54.6SSW30.13- 64.8 64.8 61.7---
2024-04-14 06:10 amWSW 3.9 3.9 2.0-4.6SSW30.13- 64.9 64.8 61.7---
2024-04-14 06:00 am SW 3.9 5.8----30.13+0.02 64.9 64.8 61.5---
2024-04-14 05:50 am SW 5.8 5.8 2.0 84.6SSE30.12- 65.1 64.8 61.3---
2024-04-14 05:40 am SW 5.8 5.8----30.12- 65.1 64.8 61.2---
2024-04-14 05:30 am SW 5.8 7.8----30.12- 65.1 64.8 61.2---
2024-04-14 05:20 am SW 5.8 7.8 2.3 54.5 SW30.12- 65.1 64.8 61.2---
2024-04-14 05:10 am SW 5.8 7.8 2.3-4.5 SW30.11- 65.1 64.8 61.2---
2024-04-14 05:00 am SW 5.8 7.8----30.11+0.01 65.1 64.8 61.0---
2024-04-14 04:50 am SW 7.8 7.8 2.3 54.4 SW30.11- 65.3 64.8 61.2---
2024-04-14 04:40 am SW 7.8 9.7----30.11- 65.3 64.8 61.0---
2024-04-14 04:30 am SW 7.8 9.7----30.11- 65.3 64.8 61.0---
2024-04-14 04:20 am SW 7.8 9.7 2.3 54.4 SW30.11- 65.3 64.8 60.4---
2024-04-14 04:10 am SW 7.8 9.7 2.3-4.4 SW30.11- 65.5 64.8 60.4---
2024-04-14 04:00 am SW 7.8 9.7----30.11+0.00 65.5 64.8 60.3---
2024-04-14 03:50 am SW 7.8 9.7 2.3 54.4 SW30.11- 65.3 64.8 60.1---
2024-04-14 03:40 am SW 7.8 9.7----30.11- 65.3 64.8 60.4---
2024-04-14 03:30 am SW 7.8 9.7----30.10- 65.3 64.8 60.4---
2024-04-14 03:20 am SW 7.8 9.7 2.3 54.4 SW30.10- 65.3 64.8 60.6---
2024-04-14 03:10 am SW 7.8 9.7 2.3-4.4 SW30.11- 65.5 64.8 60.3---
2024-04-14 03:00 am SW 7.8 9.7----30.10-0.01 65.5 64.8 59.4---
2024-04-14 02:50 am SW 9.7 11.7 2.3 54.3 SW30.10- 65.5 64.8 59.7---
2024-04-14 02:40 am SW 7.8 9.7----30.10- 65.5 64.8 59.7---
2024-04-14 02:30 am SW 9.7 11.7----30.10- 65.5 64.6 60.1---
2024-04-14 02:20 am SW 9.7 11.7 2.6 54.5 SW30.10- 65.5 64.6 59.5---
2024-04-14 02:10 am SW 9.7 11.7 2.6-4.5 SW30.10- 65.3 64.6 59.9---
2024-04-14 02:00 am SW 7.8 9.7----30.10+0.00 65.7 64.6 60.4---
2024-04-14 01:50 am SW 7.8 9.7 2.6 54.3 SW30.10- 65.7 64.8 59.5---
2024-04-14 01:40 am SW 9.7 11.7----30.10- 65.7 64.8 59.4---
2024-04-14 01:30 am SW 9.7 11.7----30.10- 65.8 64.8 59.2---
2024-04-14 01:20 am SW 9.7 11.7 2.6 54.3 SW30.11- 66.2 64.8 58.6---
2024-04-14 01:10 am SW 9.7 11.7 2.6-4.3 SW30.11- 66.2 64.8 57.9---
2024-04-14 01:00 am SW 9.7 11.7----30.11+0.00 66.4 64.8 57.0---
2024-04-14 12:50 amWSW 9.7 11.7 2.6 54.3 SW30.11- 65.8 64.8 57.6---
2024-04-14 12:40 am SW 9.7 11.7----30.11- 66.2 64.8 58.1---
2024-04-14 12:30 amWSW 11.7 13.6----30.11- 65.8 64.8 56.7---
2024-04-14 12:20 am SW 9.7 11.7 3.0 54.3 SW30.11- 65.8 64.8 59.4---
2024-04-14 12:10 am SW 9.7 11.7 3.0-4.3 SW30.11- 66.2 64.8 57.7---
2024-04-14 12:00 amWSW 9.7 13.6----30.11+0.01 65.8 64.8 58.3---
2024-04-13 11:50 pm SW 9.7 11.7 3.0 54.4 SW30.11- 66.0 64.8 58.5---
2024-04-13 11:40 pmWSW 9.7 11.7----30.11- 65.5 64.8 58.5---
2024-04-13 11:30 pm SW 7.8 9.7----30.11- 65.7 64.8 59.4---
2024-04-13 11:20 pm SW 9.7 9.7 3.0 54.4 SW30.11- 65.7 64.8 58.8---
2024-04-13 11:10 pm SW 9.7 11.7----30.11- 65.5 64.8 58.8---
2024-04-13 11:00 pm SW 7.8 9.7----30.11+0.04 65.3 64.8 59.0---
2024-04-13 10:50 pm SW 7.8 11.7 3.3 54.4SSW30.11- 65.5 64.8 59.7---
2024-04-13 10:40 pm SW 9.7 11.7 3.3-4.4SSW30.11- 65.5 64.8 59.2---
2024-04-13 10:30 pm SW 9.7 11.7----30.11- 65.8 64.8 58.8---
2024-04-13 10:20 pm SW 9.7 11.7 3.3 54.3 SW30.11- 65.7 64.8 57.9---
2024-04-13 10:10 pm SW 9.7 13.6 3.3-4.3 SW30.11- 65.3 64.8 59.0---
2024-04-13 10:00 pm SW 9.7 13.6----30.11+0.05 65.5 64.9 58.8---
2024-04-13 09:50 pmWSW 11.7 13.6 3.6 54.3 SW30.11- 65.3 64.9 58.3---
2024-04-13 09:40 pm SW 11.7 13.6----30.11- 65.3 64.9 58.6---
2024-04-13 09:30 pm SW 9.7 11.7----30.11- 65.5 64.9 58.6---
2024-04-13 09:20 pmWSW 9.7 13.6 3.6 54.4 SW30.10- 65.7 64.9 58.1---
2024-04-13 09:10 pmWSW 11.7 13.6 3.6-4.4 SW30.10- 65.5 64.9 57.4---
2024-04-13 09:00 pm SW 11.7 13.6----30.10+0.04 65.5 64.9 57.9---
2024-04-13 08:50 pm SW 11.7 15.5 3.6 54.2 SW30.10- 65.5 64.9 57.7---
2024-04-13 08:40 pmWSW 13.6 15.5----30.09- 65.5 64.9 57.4---
2024-04-13 08:30 pmWSW 13.6 17.5----30.09- 65.3 64.9 57.2---
2024-04-13 08:20 pmWSW 11.7 15.5 3.6 54.3 SW30.09- 65.7 64.9 57.7---
2024-04-13 08:10 pmWSW 11.7 15.5 3.6-4.3 SW30.08- 65.7 64.9 56.8---
2024-04-13 08:00 pmWSW 13.6 15.5----30.07+0.02 65.5 64.9 56.1---
2024-04-13 07:50 pmWSW 13.6 17.5 3.6 64.3 SW30.07- 65.5 64.9 55.9---
2024-04-13 07:40 pmWSW 13.6 17.5----30.06- 65.3 64.9 56.1---
2024-04-13 07:30 pm SW 13.6 15.5----30.06- 65.5 64.9 56.5---
2024-04-13 07:20 pmWSW 13.6 15.5 3.6 54.2WSW30.06- 65.7 64.9 55.8---
2024-04-13 07:10 pmWSW 13.6 15.5----30.06- 65.7 64.9 55.4---
2024-04-13 07:00 pmWSW 13.6 19.4----30.06+0.00 65.5 64.9 55.4---
2024-04-13 06:50 pmWSW 17.5 21.4 3.6 64.2 SW30.06- 66.0 64.9 55.9---
2024-04-13 06:40 pm W 15.5 21.4----30.06- 66.7 64.9 52.0---
2024-04-13 06:30 pm W 15.5 21.4----30.05- 66.2 64.9 52.7---
2024-04-13 06:20 pmWSW 15.5 21.4 3.9 44.3WSW30.06- 66.2 64.9 54.0---
2024-04-13 06:10 pmWSW 15.5 19.4 3.9-4.3WSW30.06- 66.0 64.9 53.6---
2024-04-13 06:00 pmWSW 15.5 17.5----30.06-0.02 65.7 64.9 54.7---
2024-04-13 05:50 pmWSW 15.5 17.5 3.9 44.3WSW30.06- 65.5 64.9 55.2---

Detailed Wave Summary
for 41013 as of (6:10 pm EDT)
2210 GMT on 04/14/2024:

These wave data are displayed in rounded times.

     

Click on the graph icon in the table below to see a time series plot of the last five days of that observation.

5-day plot - Significant Wave Height Significant Wave Height (WVHT): 2.0 ft
5-day plot - Swell Height Swell Height (SwH): 1.6 ft
5-day plot - Swell Period Swell Period (SwP): 8.3 sec
5-day plot - Swell Direction Swell Direction (SwD):ESE
5-day plot - Wind Wave Height Wind Wave Height (WWH): 1.3 ft
5-day plot - Wind Wave Period Wind Wave Period (WWP): 4.2 sec
5-day plot - Wind Wave Direction Wind Wave Direction (WWD):SSW
5-day plot - Average Wave Period Average Wave Period (APD): 4.5 sec
Previous observations
TIME
(EDT)
5-day plot - Wave Height
WVHT
ft
5-day plot - Swell Height
SwH
ft
5-day plot - Swell Period
SwP
sec
5-day plot - Swell Direction
SwD
 
5-day plot - Wind Wave Height
WWH
ft
5-day plot - Wind Wave Period
WWP
sec
5-day plot - Wind Wave Direction
WWD
 
5-day plot - Wave Steepness
STEEPNESS
 
5-day plot - Average Wave Period
APD
sec
2024-04-14 05:40 pm 2.0 1.6 8.3 SE 1.0 4.3 SSW N/A 4.5
2024-04-14 05:10 pm 2.0 1.6 8.3ESE 1.0 4.0 SSW N/A 4.8
2024-04-14 04:40 pm 2.0 1.6 8.3 SE 1.0 4.0 SSW N/A 5.1
2024-04-14 04:10 pm 2.0 1.6 7.7ESE 0.7 3.7 SSW N/A 5.1
2024-04-14 03:40 pm 1.6 1.6 8.3 SE 1.0 3.8 SSW N/A 5.0
2024-04-14 03:10 pm 2.0 1.6 8.3 SE 1.0 3.8 SW N/A 5.2
2024-04-14 02:40 pm 1.6 1.6 12.1 E 1.0 3.7 SW N/A 5.0
2024-04-14 02:10 pm 2.0 1.6 11.4 E 1.0 3.2 SSW N/A 4.9
2024-04-14 01:40 pm 2.0 1.6 12.1 E 1.0 3.6 SW N/A 5.0
2024-04-14 01:10 pm 2.0 1.6 8.3 SE 1.0 3.8 SW N/A 4.8
2024-04-14 12:40 pm 1.6 1.3 12.1ENE 1.0 4.0 SSW N/A 4.6
2024-04-14 12:10 pm 2.0 1.6 11.4 E 1.0 3.6 SSW N/A 4.6
2024-04-14 11:40 am 2.0 1.6 12.1 E 1.0 3.6 SSW N/A 4.5
2024-04-14 11:10 am 2.0 1.6 11.4 E 1.0 3.4 SSW N/A 4.5
2024-04-14 10:40 am 2.0 1.6 12.1 E 1.0 3.8 SSW N/A 4.5
2024-04-14 10:10 am 2.0 1.6 4.8SSW 1.0 4.0 SSW N/A 4.4
2024-04-14 09:40 am 2.0 1.6 4.5SSW 1.0 4.0 SSW N/A 4.5
2024-04-14 09:10 am 2.0 1.6 4.5SSW 1.0 4.0 SSW N/A 4.4
2024-04-14 08:40 am 2.0 1.6 4.5SSW 1.0 3.6 SW N/A 4.5
2024-04-14 08:10 am 2.0 1.6 8.3 SE 1.0 3.8 SSW N/A 4.5
2024-04-14 07:40 am 2.3 2.0 12.1ESE 1.0 3.8 SSW N/A 4.7
2024-04-14 07:10 am 2.0 1.6 4.8 SW 1.0 4.0 SSW N/A 4.6
2024-04-14 06:40 am 2.0 2.0 4.8SSW 1.0 3.8 SSW N/A 4.7
2024-04-14 06:10 am 2.0 1.6 4.8SSW 1.0 3.8 SW N/A 4.6
2024-04-14 05:40 am 2.0 2.0 7.7SSE 1.0 3.2 SW N/A 4.6
2024-04-14 05:10 am 2.3 2.0 5.0 SW 1.3 4.0 SW N/A 4.5
2024-04-14 04:40 am 2.3 1.6 5.0 SW 1.3 3.6 SW N/A 4.4
2024-04-14 04:10 am 2.3 2.0 5.0 SW 1.3 3.2 SW N/A 4.4
2024-04-14 03:40 am 2.3 2.0 5.3 SW 1.3 3.7 SW N/A 4.4
2024-04-14 03:10 am 2.3 2.0 5.3 SW 1.3 3.6 SW N/A 4.4
2024-04-14 02:40 am 2.3 2.0 4.5 SW 1.3 4.0 SW N/A 4.3
2024-04-14 02:10 am 2.6 2.0 5.0 SW 1.6 3.4 WSWVERY_STEEP 4.5
2024-04-14 01:40 am 2.6 2.0 4.8 SW 2.0 3.8 SWVERY_STEEP 4.3
2024-04-14 01:10 am 2.6 2.0 5.6SSW 2.0 4.5 SWVERY_STEEP 4.3
2024-04-14 12:40 am 2.6 2.0 5.0 SW 2.0 4.3 SWVERY_STEEP 4.3
2024-04-14 12:10 am 3.0 2.0 5.3 SW 2.0 3.8 SW STEEP 4.3
2024-04-13 11:40 pm 3.0 2.3 5.0 SW 2.0 3.6 SWVERY_STEEP 4.4
2024-04-13 11:10 pm 3.0 2.3 5.3 SW 2.0 4.3 SW STEEP 4.4
2024-04-13 10:40 pm 3.3 2.6 5.3SSW 2.0 4.2 SWVERY_STEEP 4.4
2024-04-13 10:10 pm 3.3 2.0 5.3 SW 2.3 4.8 SW STEEP 4.3
2024-04-13 09:40 pm 3.6 2.0 6.7 S 3.0 5.3 SWVERY_STEEP 4.3
2024-04-13 09:10 pm 3.6 2.0 5.9SSW 3.0 5.3 SWVERY_STEEP 4.4
2024-04-13 08:40 pm 3.6 1.3 12.1 S 3.3 4.8 SWVERY_STEEP 4.2
2024-04-13 08:10 pm 3.6 1.6 7.7 SE 3.3 5.3 SWVERY_STEEP 4.3
2024-04-13 07:40 pm 3.6 1.0 8.3SSE 3.6 5.6 SW STEEP 4.3
2024-04-13 07:10 pm 3.6 1.3 7.7 SE 3.6 4.5 WSWVERY_STEEP 4.2
2024-04-13 06:40 pm 3.6 1.0 7.7SSE 3.6 5.6 SW STEEP 4.2
2024-04-13 06:10 pm 3.9 1.3 8.3 SE 3.6 4.3 WSWVERY_STEEP 4.3

Plot of wave energy versus frequency (and period)